Other Public Products
Issued by NWS Charleston, SC

Current Version | Previous Version | Graphics & Text | Print | Product List | Glossary On
Versions: 1 2 3 4 5 6 7 8 9 10 11 12 13 14 15 16 17 18 19 20 21 22 23 24 25 26 27 28 29 30 31 32 33 34 35 36 37 38 39 40 41 42 43 44 45 46 47 48 49 50
138 FPUS82 KCHS 220112 OPUCHS TEST...KCHS/KSAV Gateway Observations...TEST National Weather Service Charleston SC 800 PM EST SUN JAN 21 2018 NOTE: "fair" indicates few or no clouds below 12,000 feet with no significant weather and/or obstructions to visibility. SCZ050-WAZ558-NCZ071-TXZ119-213-PAZ071-DCZ001-FLZ074-172-MI076- NYZ176-178-MAZ016-IL014-TNZ027-NJZ106-GAZ044-MD014-220200- ...Gateway Observations for Charleston International... CITY SKY/WX TMP DP RH WIND PRES REMARKS Chas Airport FAIR 53 41 63 CALM 30.24R Seattle CLOUDY 42 38 85 S15 29.92F Charlotte FAIR 56 41 57 S5 30.20S Dallas DFW PTCLDY 68 63 84 S17 29.72S Dallas Love CLOUDY 68 62 81 S15G23 29.74F Philladelphia MOCLDY 46 36 68 S3 30.19R Wash National FAIR 50 37 61 S7 30.14F Baltimore MOCLDY 46 38 73 E3 30.15S Miami FAIR 73 64 73 E10 30.13R Detroit FOG 38 38 100 E3 30.03S VSB 1/4 Newark CLOUDY 49 35 58 S3 30.18R Laguardia CLOUDY 47 33 58 S7 30.18R J F K CLOUDY 42 35 76 SW3 30.20R Boston Logan MOCLDY 36 30 79 S7 30.18S WCI 30 Ft. Lauderdale FAIR 72 69 90 E13 30.12S Chicago O`Hare LGT RAIN 41 40 96 E6 29.90F VSB 1/4 Chicago Midway DRZL/FOG 43 42 97 E6 29.90F VSB 1 Houston Bush CLOUDY 67 66 97 SE16 29.88F Houston Hobby CLOUDY 68 68 100 S10 29.90S Nashville FAIR 59 45 59 S13 30.06S Atlanta FAIR 58 44 60 SE3 30.17R $$ GAZ044-118-TXZ119-213-NCZ071-DCZ001-MDZ014-506-PAZ021-071-NJZ106- NYZ176-178-MAZ106-OHZ011-021-055-MIZ076-KYZ091-ILZ014-INZ047- MNZ060-ONZ431-220200- ...Gateway Observations for Savannah International... CITY SKY/WX TMP DP RH WIND PRES REMARKS Savannah Arpt FAIR 53 39 59 SE7 30.23S Atlanta FAIR 58 44 60 SE3 30.17R Charlotte FAIR 56 41 57 S5 30.20S Dallas DFW PTCLDY 68 63 84 S17 29.72S Houston Bush CLOUDY 67 66 97 SE16 29.88F Wash National FAIR 50 37 61 S7 30.14F Wash Dulles FAIR 52 41 66 SE3 30.13S Baltimore MOCLDY 46 38 73 E3 30.15S Philadelphia MOCLDY 46 36 68 S3 30.19R Newark CLOUDY 49 35 58 S3 30.18R Laguardia CLOUDY 47 33 58 S7 30.18R J F K CLOUDY 42 35 76 SW3 30.20R Boston MOCLDY 36 30 79 S7 30.18S WCI 30 Pittsburg DRIZZLE 45 44 97 CALM 30.08S FOG Akron FOG 43 41 93 S5 30.06S VSB 1/4 Cleveland CLOUDY 46 44 93 S7 30.07S Cincinnati CLOUDY 52 51 97 S7 30.04S Columbus CLOUDY 47 48 100 S3 30.06S Detroit FOG 38 38 100 E3 30.03S VSB 1/4 Chicago O`Hare LGT RAIN 41 40 96 E6 29.90F VSB 1/4 Minneapolis CLOUDY 36 30 79 N9G22 29.95S WCI 29 Indianapolis DRZL/FOG 49 49 100 SE9 29.99F VSB 1 Toronto Canada FOG 36 34 93 SE5 30.06 VSB 3/4 WCI 32 $$

USA.gov is the U.S. government's official web portal to all federal, state and local government web resources and services.